Location: Banios
(43.0451°N, 0.2335°E)
Time: 05:54:44
(UTC+00:00)

N. Korean satellite - Pass Details

Date: 03 December 2021
Orbit: 447 x 491 km, 97.3° (Epoch: 25 January)

Event Time Altitude Azimuth Distance (km) Brightness Sun altitude
Rises 05:18:15 0° 11° (N) 2,467 10.2 -20.3°
Reaches altitude 10° 05:20:18 10° 11° (N) 1,586 9.1 -20.0°
Maximum altitude 05:23:41 85° 285° (WNW) 455 6.2 -19.3°
Drops below altitude 10° 05:27:03 10° 195° (SSW) 1,568 9.1 -18.8°
Sets 05:29:04 0° 194° (SSW) 2,435 10.1 -18.4°
